DECAYED

STARLINK-1098, 44917 (Decayed)

Orbit data source: Space-Track

STARLINK-1098, 44917 was a payload satellite owned by SpaceX/Seattle (US) in LEO that was launched on Tue, 07 Jan 2020 UTC via an FALCON 9 launch vehicle from the Air Force Eastern Test Range (AFETR). Payload-class satellites include a variety of spacecraft equipped with specific instruments for various scientific and technological missions. These include communications satellites like Starlink; space stations such as the ISS; scientific satellites like the Hubble; Earth observation satellites from companies like Planet Labs, Umbra, and HawkEye 360; GPS; miniature CubeSats for education and research; and military/defense satellites.

Not visible in the next 10 days
Identifier
44917, 2020-001D
Orbit
Decayed
Country
Flag of USUS
Related business
Manufacturer
SpaceX/Seattle
Mission
Decayed Commercial Communications
Bus & Motor
STARLINK, Unknown motor
Mass
260 kg wet, ~248 kg dry
Launch date (UTC)
2020-01-07 (6 years ago)
Launch vehicle
FALCON 9
Launch site
Air Force Eastern Test Range (AFETR)
Object type
Payload
Rocket body
Debris
Shape & HBR
Box + 1 Pan, 10.1 m
Radar Cross Section
13.562 m², Large (>1 m²)

Expand to show TLE details & history
Last TLE update: 2 months ago

TLE from 2 months ago
0 STARLINK-1098
1 44917U 20001D   25256.28386707  .05498894  12254-4  75335-3 0  9990
2 44917  53.0371   1.7258 0005052 320.9894  39.0785 16.34419014313963
Epoch: 2025-09-13T06:48Z
TLE epoch observation values (Epoch: 2025-09-13T06:48:46.114Z)
Latitude
-0.00004°
Longitude
-92.98582°
Altitude
179.046 km
Speed
7.802 km/s
True Right ascension
00h 06m 54s
True Declination
0° 00' 00"
Sunlit
Object was in full shadow at epoch
Visualization orbit readout
Latitude
Unknown
Longitude
Unknown
Altitude
Unknown
Speed
Unknown
Apparent Right ascension
Unknown
Apparent Declination
Unknown
Sunlit
N/A
Visualization observer readout
Local Sidereal Time
21:39:54
Azimuth
Unknown
Elevation
Unknown
Doppler factor
Unknown
Orbital elements
Apogee altitude
184.293 km
Perigee altitude
177.666 km
Semi-major axis
6,559.116 km
Eccentricity
0.00051
Inclination
53.0371°
RAAN
1.7258°
Arg. of periapsis
320.9894°
True anomaly
39.11501°
Mean anomaly
39.0785°
Eccentric anomaly
39.09675°
Mean motion
4.08578 °/min
Orbital period
88.11 mins
BSTAR
0.00075335
Loading maneuver chart data...
Computing Atmospheric mass density...
Loading historical data...
Loading historical data...
Loading historical data...
Loading historical data...
Loading historical data...
Loading historical data...
Loading historical data...

Documentation

Showing up to 5 results
|